Content
SEND FEEDBACK

Daily
Averages
Monthly
Summary
Ghana

ACCRA, GHANA


Home > Africa > Ghana
Elevation: 226 feet     Latitude: 05 36N     Longitude: 000 10W

WEATHER
 
SELECT A DAY
Number of Records: 91,229;   Date Range: 7/1/96 - 9/21/14
 
SHARE

PRINT THIS DATA

[ ← Previous Day ]
WEATHER ALMANAC - AUGUST 18, 2013
[ Next Day → ]
[ °C ]   °F
Weather ElementAverageHighLow
Temperature76.4 °F83 °F (3:00 pm)73.4 °F (1:55 am)
Dewpoint69.1 °F69.8 °F (1:55 am)67 °F (3:00 pm)
Humidity77.6 %88 % (1:55 am)50 % (3:00 pm)
Barometer29.93 in30.01 in (9:00 am)29.86 in (3:00 pm)
Wind Speed11.8 mph16.1 mph (5:00 pm)
Weather ElementAverage
Visibility6.9 mi
Wind DirectionWSW (231.3 °)

Weather ElementTotal
Precipitation---
Cooling Degree Days13.2 (Base 65)
Growing Degree Days28.2 (Base 50)
Averaged from 23 records on August 18, 2013
WEATHER CONDITIONS BREAKOUT
WIND DIRECTION BREAKOUT
WEATHER BY HOUR - AUGUST 18, 2013
[ °C ]   °F
Local TimeTemperatureDewpointHumidityBarometerVisibilityWind DirectionWind SpeedGust SpeedPrecipitationEventsConditions
1:55 AM73.4 °F69.8 °F88 %29.92 in6.2 miSW (220°)12.7 mphOvercast
2:54 AM73.4 °F69.8 °F88 %29.92 in6.2 miSW (230°)8.1 mphOvercast
3:54 AM73.4 °F69.8 °F88 %29.92 in6.2 miWSW (240°)10.4 mphOvercast
6:00 AM73.4 °F69.8 °F88 %29.95 in6.2 miWSW (250°)8.1 mphOvercast
6:54 AM73.4 °F69.8 °F88 %29.95 in6.2 miWest (260°)10.4 mphOvercast
7:55 AM75.2 °F69.8 °F83 %29.98 in6.2 miWSW (240°)11.5 mphMostly Cloudy
9:00 AM77.0 °F69.0 °F68 %30.01 in9.0 miWSW (240°)5.8 mphMostly Cloudy
9:00 AM75.2 °F68.0 °F78 %30.01 inWSW (250°)10.4 mphMostly Cloudy
10:00 AM77.0 °F68.0 °F74 %29.98 in6.2 miSW (230°)11.5 mphMostly Cloudy
12:00 PM78.8 °F69.8 °F74 %29.98 in6.2 miSW (230°)11.5 mphMostly Cloudy
1:00 PM80.6 °F69.8 °F70 %29.92 in6.2 miWSW (240°)11.5 mphMostly Cloudy
1:54 PM80.6 °F69.8 °F70 %29.89 in6.2 miSW (230°)11.5 mphMostly Cloudy
3:00 PM83.0 °F67.0 °F50 %29.88 in11.0 miSSW (210°)15.0 mphPartly Cloudy
3:00 PM82.4 °F69.8 °F66 %29.86 in6.2 miSouth (190°)15.0 mphMostly Cloudy
3:55 PM78.8 °F68.0 °F69 %29.86 in6.2 miWNW (290°)12.7 mph
5:00 PM77.0 °F68.0 °F74 %29.86 inSSW (200°)16.1 mphClear
6:00 PM77.0 °F68.0 °F74 %29.89 in6.2 miSSW (210°)15.0 mphScattered Clouds
7:00 PM75.2 °F68.0 °F78 %29.89 in6.2 miSW (220°)15.0 mphPartly Cloudy
8:00 PM75.2 °F69.8 °F83 %29.92 in6.2 miSW (230°)15.0 mphPartly Cloudy
9:00 PM75.0 °F68.0 °F74 %29.94 in11.0 miSW (230°)11.5 mphScattered Clouds
9:00 PM75.2 °F69.8 °F83 %29.92 inSW (220°)13.8 mphClear
10:00 PM73.4 °F69.8 °F88 %29.92 inSW (230°)10.4 mphClear
11:00 PM73.4 °F69.8 °F88 %29.92 in6.2 miSW (230°)9.2 mphPartly Cloudy
Hourly data recorded from DGAA, located miles away from Accra, Ghana







STORIES FROM OUR PARTNERS